QPF
0.04 0.03 0.04 0.03 0.03 0.03 0.04 0.05 0.04 0.03 0.04 0.04 0.03 0.04 0.06 0.05 0.04 0.03 0.02 0.01 0.01 0.01 0.01 0.00 0.00 0.00 0.00 0.00 0.00 0.00 0.00 0.00 0.00 0.00 0.00 0.00 0.00 0.00 0.00 0.00 0.00 0.00 0.00 0.00
0.03 0.03 0.04 0.03 0.02 0.04 0.04 0.05 0.04 0.04 0.05 0.04 0.03 0.04 0.05 0.05 0.05 0.04 0.02 0.02 0.02 0.01 0.01 0.00 0.00 0.00 0.00 0.00 0.00 0.00 0.00 0.00 0.00 0.00 0.00 0.00 0.00 0.00 0.00 0.00 0.00 0.00 0.00 0.00
0.02 0.02 0.03 0.03 0.03 0.05 0.06 0.04 0.04 0.04 0.06 0.05 0.05 0.04 0.04 0.05 0.05 0.04 0.02 0.02 0.02 0.01 0.01 0.00 0.00 0.00 0.00 0.00 0.00 0.00 0.00 0.00 0.00 0.00 0.00 0.00 0.00 0.00 0.00 0.00 0.00 0.00 0.00 0.00
0.02 0.02 0.02 0.03 0.03 0.04 0.08 0.07 0.05 0.07 0.07 0.05 0.05 0.03 0.03 0.03 0.04 0.02 0.02 0.01 0.01 0.01 0.00 0.00 0.00 0.00 0.00 0.00 0.00 0.00 0.00 0.01 0.01 0.00 0.00 0.00 0.00 0.00 0.00 0.00 0.00 0.00 0.00 0.00
0.03 0.02 0.02 0.02 0.02 0.04 0.08 0.08 0.10 0.10 0.07 0.04 0.02 0.02 0.01 0.01 0.02 0.01 0.01 0.00 0.00 0.00 0.00 0.00 0.00 0.00 0.00 0.00 0.00 0.00 0.00 0.00 0.00 0.00 0.00 0.00 0.00 0.00 0.00 0.00 0.00 0.00 0.00 0.00
0.03 0.04 0.03 0.03 0.03 0.04 0.06 0.10 0.13 0.11 0.08 0.04 0.01 0.01 0.00 0.00 0.00 0.00 0.00 0.00 0.00 0.00 0.00 0.00 0.00 0.00 0.00 0.01 0.00 0.00 0.00 0.00 0.00 0.00 0.00 0.00 0.00 0.00 0.00 0.00 0.00 0.00 0.00 0.00
0.04 0.05 0.04 0.03 0.05 0.08 0.09 0.10 0.12 0.10 0.06 0.03 0.01 0.00 0.00 0.00 0.00 0.00 0.00 0.00 0.00 0.00 0.00 0.00 0.00 0.00 0.00 0.00 0.01 0.00 0.00 0.00 0.00 0.00 0.00 0.00 0.00 0.00 0.00 0.00 0.00 0.00 0.00 0.00
0.04 0.05 0.03 0.03 0.05 0.06 0.07 0.07 0.08 0.06 0.03 0.02 0.01 0.00 0.00 0.00 0.00 0.00 0.00 0.00 0.00 0.00 0.00 0.00 0.00 0.00 0.00 0.00 0.00 0.00 0.00 0.00 0.00 0.00 0.00 0.00 0.00 0.00 0.00 0.00 0.00 0.00 0.00 0.00
0.03 0.04 0.03 0.04 0.05 0.06 0.05 0.05 0.04 0.03 0.02 0.01 0.00 0.00 0.00 0.00 0.00 0.00 0.00 0.00 0.00 0.00 0.00 0.00 0.00 0.00 0.00 0.00 0.00 0.00 0.00 0.00 0.00 0.00 0.00 0.00 0.00 0.00 0.00 0.00 0.00 0.00 0.00 0.00
0.02 0.03 0.04 0.05 0.06 0.06 0.05 0.05 0.03 0.03 0.02 0.01 0.00 0.00 0.00 0.00 0.00 0.00 0.00 0.00 0.00 0.00 0.00 0.00 0.00 0.00 0.00 0.00 0.00 0.00 0.00 0.00 0.00 0.00 0.00 0.00 0.00 0.00 0.00 0.00 0.00 0.00 0.00 0.00
0.01 0.02 0.03 0.05 0.04 0.03 0.03 0.04 0.02 0.01 0.01 0.00 0.00 0.00 0.00 0.00 0.00 0.00 0.00 0.00 0.00 0.00 0.00 0.00 0.00 0.00 0.00 0.00 0.00 0.00 0.00 0.00 0.00 0.00 0.00 0.00 0.00 0.00 0.00 0.00 0.00 0.00 0.00 0.00
0.01 0.01 0.02 0.03 0.03 0.03 0.03 0.02 0.01 0.01 0.00 0.00 0.00 0.00 0.00 0.00 0.00 0.00 0.00 0.00 0.00 0.00 0.00 0.00 0.00 0.00 0.00 0.00 0.00 0.00 0.00 0.00 0.00 0.00 0.00 0.00 0.00 0.00 0.00 0.00 0.00 0.00 0.00 0.00
0.01 0.01 0.02 0.02 0.03 0.03 0.02 0.01 0.01 0.01 0.00 0.00 0.00 0.00 0.00 0.00 0.00 0.00 0.00 0.00 0.00 0.00 0.00 0.00 0.00 0.00 0.00 0.00 0.00 0.00 0.00 0.00 0.00 0.00 0.00 0.00 0.00 0.00 0.00 0.00 0.00 0.00 0.00 0.00
0.01 0.01 0.01 0.02 0.02 0.01 0.01 0.01 0.01 0.00 0.00 0.00 0.00 0.00 0.00 0.00 0.00 0.00 0.00 0.00 0.00 0.00 0.00 0.00 0.00 0.00 0.00 0.00 0.00 0.00 0.00 0.00 0.00 0.00 0.00 0.00 0.00 0.00 0.00 0.00 0.00 0.00 0.00 0.00
0.01 0.01 0.01 0.01 0.01 0.00 0.00 0.00 0.00 0.00 0.00 0.00 0.00 0.00 0.00 0.00 0.00 0.00 0.00 0.00 0.00 0.00 0.00 0.00 0.00 0.00 0.00 0.00 0.00 0.00 0.00 0.00 0.00 0.00 0.00 0.00 0.00 0.00 0.00 0.00 0.00 0.00 0.00 0.00
0.00 0.00 0.01 0.01 0.00 0.00 0.00 0.00 0.00 0.00 0.00 0.00 0.00 0.00 0.00 0.00 0.00 0.00 0.00 0.00 0.00 0.00 0.00 0.00 0.00 0.00 0.00 0.00 0.00 0.00 0.00 0.00 0.00 0.00 0.00 0.00 0.00 0.00 0.00 0.00 0.00 0.00 0.00 0.00
0.00 0.00 0.00 0.00 0.00 0.00 0.00 0.00 0.00 0.00 0.00 0.00 0.00 0.00 0.00 0.00 0.00 0.00 0.00 0.00 0.00 0.00 0.00 0.00 0.00 0.00 0.00 0.00 0.00 0.00 0.00 0.00 0.00 0.00 0.00 0.00 0.00 0.00 0.00 0.00 0.00 0.00 0.00 0.00
0.00 0.00 0.00 0.00 0.00 0.00 0.00 0.00 0.00 0.00 0.00 0.00 0.00 0.00 0.00 0.00 0.00 0.00 0.00 0.00 0.00 0.00 0.00 0.00 0.00 0.00 0.00 0.00 0.00 0.00 0.00 0.00 0.00 0.00 0.00 0.00 0.00 0.00 0.00 0.00 0.00 0.00 0.00 0.00
0.00 0.00 0.00 0.00 0.00 0.00 0.00 0.00 0.00 0.00 0.00 0.00 0.00 0.00 0.00 0.00 0.00 0.00 0.00 0.00 0.00 0.00 0.00 0.00 0.00 0.00 0.00 0.00 0.00 0.00 0.00 0.00 0.00 0.00 0.00 0.00 0.00 0.00 0.00 0.00 0.00 0.00 0.00 0.00
0.00 0.00 0.00 0.00 0.00 0.00 0.00 0.00 0.00 0.00 0.00 0.00 0.00 0.00 0.00 0.00 0.00 0.00 0.00 0.00 0.00 0.00 0.00 0.00 0.00 0.00 0.00 0.00 0.00 0.00 0.00 0.00 0.00 0.00 0.00 0.00 0.00 0.00 0.00 0.00 0.00 0.00 0.00 0.00
0.00 0.00 0.00 0.00 0.00 0.00 0.00 0.00 0.00 0.00 0.00 0.00 0.00 0.00 0.00 0.00 0.00 0.00 0.00 0.00 0.00 0.00 0.00 0.00 0.00 0.00 0.00 0.00 0.00 0.00 0.00 0.00 0.00 0.00 0.00 0.00 0.00 0.00 0.00 0.00 0.00 0.00 0.00 0.00
0.00 0.00 0.00 0.00 0.00 0.00 0.00 0.00 0.00 0.00 0.00 0.00 0.00 0.00 0.00 0.00 0.00 0.00 0.00 0.00 0.00 0.00 0.00 0.00 0.00 0.00 0.00 0.00 0.00 0.00 0.00 0.00 0.00 0.00 0.00 0.00 0.00 0.00 0.00 0.00 0.00 0.00 0.00 0.00
0.00 0.00 0.00 0.00 0.00 0.00 0.00 0.00 0.00 0.00 0.00 0.00 0.00 0.00 0.00 0.00 0.00 0.00 0.00 0.00 0.00 0.00 0.00 0.00 0.00 0.00 0.00 0.00 0.00 0.00 0.00 0.00 0.00 0.00 0.00 0.00 0.00 0.00 0.00 0.00 0.00 0.00 0.00 0.00
0.00 0.00 0.00 0.00 0.00 0.00 0.00 0.00 0.00 0.00 0.00 0.00 0.00 0.00 0.00 0.00 0.00 0.00 0.00 0.00 0.00 0.00 0.00 0.00 0.00 0.00 0.00 0.00 0.00 0.00 0.00 0.00 0.00 0.00 0.00 0.00 0.00 0.00 0.00 0.00 0.00 0.00 0.00 0.00
0.00 0.00 0.00 0.00 0.00 0.00 0.00 0.00 0.00 0.00 0.00 0.00 0.00 0.00 0.00 0.00 0.00 0.00 0.00 0.00 0.00 0.00 0.00 0.00 0.00 0.00 0.00 0.00 0.00 0.00 0.00 0.00 0.00 0.00 0.00 0.00 0.00 0.00 0.00 0.00 0.00 0.00 0.00 0.00
0.00 0.00 0.00 0.00 0.00 0.00 0.00 0.00 0.00 0.00 0.00 0.00 0.00 0.00 0.00 0.00 0.00 0.00 0.00 0.00 0.00 0.00 0.00 0.00 0.00 0.00 0.00 0.00 0.00 0.00 0.00 0.00 0.00 0.00 0.00 0.00 0.00 0.00 0.00 0.00 0.00 0.00 0.00 0.00
MSLP
1014.96 1015.68 1016.24 1016.63 1016.86 1016.98 1017.01 1016.99 1016.95 1016.90 1016.85 1016.79 1016.71 1016.62 1016.53 1016.45 1016.38 1016.33 1016.29 1016.24 1016.17 1016.04 1015.84 1015.56 1015.24 1014.89 1014.58 1014.37 1014.29 1014.38 1014.65 1015.06 1015.58 1016.13 1016.65 1017.09 1017.41 1017.60 1017.67 1017.64 1017.56 1017.46 1017.36 1017.29
1015.27 1015.82 1016.24 1016.53 1016.72 1016.87 1016.99 1017.12 1017.25 1017.37 1017.44 1017.46 1017.40 1017.27 1017.09 1016.88 1016.69 1016.53 1016.42 1016.34 1016.26 1016.15 1015.98 1015.73 1015.41 1015.04 1014.68 1014.40 1014.24 1014.26 1014.48 1014.88 1015.40 1015.99 1016.58 1017.09 1017.47 1017.71 1017.80 1017.77 1017.67 1017.54 1017.42 1017.32
1015.32 1015.70 1015.97 1016.17 1016.35 1016.56 1016.82 1017.13 1017.45 1017.74 1017.96 1018.05 1018.00 1017.81 1017.53 1017.19 1016.87 1016.60 1016.41 1016.30 1016.23 1016.17 1016.06 1015.87 1015.58 1015.22 1014.84 1014.50 1014.27 1014.22 1014.38 1014.74 1015.26 1015.86 1016.49 1017.05 1017.48 1017.75 1017.86 1017.84 1017.73 1017.58 1017.44 1017.34
1015.20 1015.40 1015.54 1015.69 1015.89 1016.19 1016.60 1017.10 1017.63 1018.10 1018.43 1018.58 1018.52 1018.26 1017.85 1017.37 1016.91 1016.53 1016.27 1016.14 1016.10 1016.11 1016.08 1015.97 1015.75 1015.43 1015.06 1014.69 1014.41 1014.29 1014.39 1014.69 1015.18 1015.77 1016.41 1016.99 1017.46 1017.76 1017.89 1017.88 1017.77 1017.61 1017.47 1017.36
1015.05 1015.09 1015.13 1015.24 1015.49 1015.90 1016.48 1017.16 1017.86 1018.47 1018.90 1019.08 1018.98 1018.62 1018.07 1017.44 1016.84 1016.35 1016.03 1015.89 1015.90 1015.99 1016.07 1016.07 1015.95 1015.70 1015.36 1014.99 1014.68 1014.50 1014.52 1014.76 1015.19 1015.75 1016.37 1016.95 1017.43 1017.75 1017.90 1017.91 1017.81 1017.66 1017.52 1017.42
1014.96 1014.89 1014.86 1014.97 1015.28 1015.80 1016.52 1017.36 1018.19 1018.91 1019.38 1019.54 1019.37 1018.89 1018.21 1017.43 1016.69 1016.11 1015.74 1015.61 1015.68 1015.86 1016.06 1016.20 1016.20 1016.04 1015.75 1015.40 1015.06 1014.84 1014.79 1014.95 1015.30 1015.80 1016.38 1016.94 1017.42 1017.75 1017.92 1017.94 1017.86 1017.73 1017.60 1017.52
1014.98 1014.84 1014.79 1014.92 1015.30 1015.92 1016.75 1017.69 1018.61 1019.36 1019.83 1019.94 1019.67 1019.07 1018.25 1017.34 1016.50 1015.84 1015.45 1015.34 1015.47 1015.76 1016.09 1016.36 1016.49 1016.43 1016.21 1015.89 1015.55 1015.27 1015.15 1015.23 1015.49 1015.91 1016.43 1016.95 1017.40 1017.74 1017.92 1017.97 1017.92 1017.81 1017.71 1017.64
1015.08 1014.91 1014.88 1015.06 1015.50 1016.19 1017.09 1018.09 1019.02 1019.76 1020.18 1020.21 1019.84 1019.13 1018.19 1017.19 1016.27 1015.58 1015.19 1015.12 1015.32 1015.71 1016.17 1016.56 1016.81 1016.85 1016.71 1016.42 1016.07 1015.76 1015.57 1015.55 1015.72 1016.05 1016.48 1016.95 1017.37 1017.70 1017.90 1017.98 1017.96 1017.90 1017.82 1017.78
1015.15 1015.02 1015.03 1015.26 1015.76 1016.50 1017.42 1018.41 1019.32 1020.00 1020.34 1020.28 1019.81 1019.02 1018.01 1016.96 1016.02 1015.33 1014.97 1014.95 1015.23 1015.71 1016.27 1016.77 1017.12 1017.26 1017.18 1016.93 1016.58 1016.24 1015.98 1015.88 1015.94 1016.18 1016.52 1016.92 1017.31 1017.62 1017.84 1017.95 1017.97 1017.95 1017.91 1017.90
1015.08 1015.01 1015.10 1015.39 1015.93 1016.69 1017.60 1018.54 1019.37 1019.96 1020.22 1020.07 1019.54 1018.70 1017.68 1016.63 1015.73 1015.08 1014.77 1014.82 1015.17 1015.73 1016.37 1016.95 1017.38 1017.59 1017.57 1017.35 1017.01 1016.65 1016.34 1016.16 1016.13 1016.26 1016.52 1016.85 1017.19 1017.49 1017.72 1017.86 1017.93 1017.95 1017.96 1017.97
1014.79 1014.81 1014.98 1015.34 1015.90 1016.65 1017.50 1018.36 1019.09 1019.58 1019.74 1019.54 1018.98 1018.15 1017.17 1016.19 1015.36 1014.80 1014.57 1014.69 1015.10 1015.71 1016.40 1017.04 1017.52 1017.79 1017.82 1017.65 1017.33 1016.96 1016.62 1016.38 1016.28 1016.32 1016.50 1016.75 1017.05 1017.32 1017.55 1017.72 1017.83 1017.90 1017.94 1017.99
1014.27 1014.41 1014.67 1015.08 1015.65 1016.35 1017.12 1017.87 1018.49 1018.87 1018.95 1018.70 1018.15 1017.38 1016.49 1015.62 1014.91 1014.46 1014.33 1014.51 1014.97 1015.62 1016.33 1017.00 1017.52 1017.84 1017.92 1017.80 1017.53 1017.18 1016.83 1016.56 1016.41 1016.39 1016.49 1016.68 1016.92 1017.17 1017.39 1017.58 1017.71 1017.82 1017.90 1017.98
1013.66 1013.90 1014.24 1014.68 1015.22 1015.86 1016.52 1017.14 1017.62 1017.88 1017.89 1017.63 1017.12 1016.43 1015.66 1014.94 1014.37 1014.04 1013.99 1014.24 1014.74 1015.40 1016.12 1016.80 1017.36 1017.72 1017.86 1017.81 1017.61 1017.32 1017.01 1016.74 1016.57 1016.50 1016.54 1016.67 1016.86 1017.07 1017.28 1017.47 1017.62 1017.75 1017.85 1017.95
1013.10 1013.44 1013.83 1014.27 1014.77 1015.30 1015.82 1016.27 1016.60 1016.75 1016.68 1016.41 1015.94 1015.35 1014.72 1014.15 1013.72 1013.51 1013.55 1013.85 1014.36 1015.02 1015.74 1016.44 1017.02 1017.43 1017.66 1017.71 1017.61 1017.41 1017.18 1016.95 1016.79 1016.71 1016.71 1016.79 1016.93 1017.10 1017.28 1017.45 1017.60 1017.74 1017.85 1017.95
1012.79 1013.19 1013.60 1014.00 1014.40 1014.79 1015.14 1015.41 1015.56 1015.57 1015.43 1015.13 1014.71 1014.21 1013.71 1013.27 1012.98 1012.87 1012.99 1013.32 1013.84 1014.49 1015.21 1015.90 1016.52 1017.01 1017.34 1017.52 1017.55 1017.49 1017.36 1017.22 1017.10 1017.02 1017.01 1017.05 1017.15 1017.27 1017.41 1017.56 1017.70 1017.82 1017.93 1018.02
1012.84 1013.26 1013.64 1013.96 1014.23 1014.44 1014.58 1014.64 1014.60 1014.46 1014.21 1013.88 1013.48 1013.06 1012.66 1012.35 1012.16 1012.15 1012.32 1012.67 1013.19 1013.82 1014.53 1015.24 1015.91 1016.48 1016.93 1017.25 1017.45 1017.54 1017.55 1017.51 1017.47 1017.43 1017.42 1017.44 1017.50 1017.59 1017.69 1017.80 1017.91 1018.02 1018.11 1018.19
1013.24 1013.65 1013.95 1014.15 1014.25 1014.25 1014.16 1013.99 1013.74 1013.44 1013.08 1012.70 1012.31 1011.93 1011.62 1011.40 1011.30 1011.35 1011.56 1011.93 1012.44 1013.06 1013.76 1014.49 1015.21 1015.87 1016.45 1016.92 1017.29 1017.54 1017.71 1017.81 1017.85 1017.87 1017.89 1017.91 1017.95 1018.00 1018.08 1018.16 1018.25 1018.33 1018.40 1018.46
1013.90 1014.24 1014.43 1014.47 1014.37 1014.15 1013.82 1013.42 1012.98 1012.51 1012.04 1011.60 1011.20 1010.86 1010.61 1010.47 1010.44 1010.54 1010.78 1011.15 1011.65 1012.26 1012.96 1013.71 1014.47 1015.22 1015.91 1016.53 1017.06 1017.48 1017.80 1018.03 1018.18 1018.27 1018.33 1018.37 1018.41 1018.45 1018.51 1018.58 1018.65 1018.72 1018.78 1018.81
1014.59 1014.82 1014.88 1014.75 1014.45 1014.01 1013.46 1012.86 1012.23 1011.62 1011.05 1010.57 1010.16 1009.86 1009.67 1009.59 1009.62 1009.77 1010.03 1010.41 1010.91 1011.51 1012.20 1012.96 1013.76 1014.57 1015.36 1016.10 1016.76 1017.32 1017.77 1018.12 1018.37 1018.55 1018.66 1018.74 1018.80 1018.86 1018.92 1018.99 1019.07 1019.14 1019.20 1019.23
1015.08 1015.19 1015.09 1014.79 1014.31 1013.69 1012.97 1012.20 1011.44 1010.73 1010.11 1009.60 1009.22 1008.96 1008.82 1008.81 1008.90 1009.09 1009.39 1009.78 1010.27 1010.86 1011.54 1012.30 1013.12 1013.97 1014.81 1015.63 1016.38 1017.05 1017.61 1018.05 1018.40 1018.65 1018.83 1018.96 1019.06 1019.16 1019.25 1019.36 1019.45 1019.54 1019.61 1019.65
1015.19 1015.17 1014.93 1014.48 1013.86 1013.11 1012.27 1011.41 1010.58 1009.83 1009.20 1008.71 1008.37 1008.17 1008.11 1008.17 1008.32 1008.57 1008.90 1009.31 1009.80 1010.38 1011.04 1011.78 1012.59 1013.44 1014.31 1015.16 1015.96 1016.68 1017.31 1017.83 1018.25 1018.57 1018.82 1019.01 1019.18 1019.33 1019.48 1019.62 1019.76 1019.88 1019.98 1020.03
1014.85 1014.69 1014.33 1013.78 1013.08 1012.26 1011.37 1010.49 1009.67 1008.95 1008.36 1007.93 1007.67 1007.55 1007.57 1007.70 1007.92 1008.22 1008.59 1009.02 1009.51 1010.07 1010.71 1011.42 1012.20 1013.02 1013.87 1014.71 1015.51 1016.26 1016.91 1017.48 1017.95 1018.33 1018.65 1018.91 1019.15 1019.36 1019.57 1019.77 1019.96 1020.12 1020.25 1020.32
1014.10 1013.82 1013.37 1012.76 1012.03 1011.21 1010.35 1009.52 1008.77 1008.13 1007.63 1007.30 1007.13 1007.10 1007.21 1007.42 1007.71 1008.06 1008.46 1008.90 1009.40 1009.94 1010.55 1011.21 1011.93 1012.70 1013.50 1014.30 1015.07 1015.80 1016.46 1017.05 1017.55 1017.99 1018.37 1018.70 1019.00 1019.28 1019.55 1019.81 1020.04 1020.24 1020.39 1020.48
1013.06 1012.69 1012.18 1011.56 1010.85 1010.09 1009.32 1008.59 1007.96 1007.44 1007.06 1006.84 1006.77 1006.83 1007.02 1007.29 1007.64 1008.03 1008.46 1008.91 1009.40 1009.92 1010.49 1011.10 1011.76 1012.46 1013.18 1013.92 1014.64 1015.33 1015.98 1016.57 1017.10 1017.58 1018.01 1018.40 1018.77 1019.11 1019.43 1019.73 1019.99 1020.20 1020.36 1020.46
1011.92 1011.47 1010.94 1010.33 1009.68 1009.02 1008.38 1007.79 1007.30 1006.92 1006.67 1006.55 1006.57 1006.71 1006.95 1007.27 1007.65 1008.07 1008.51 1008.96 1009.44 1009.93 1010.46 1011.02 1011.61 1012.23 1012.88 1013.55 1014.21 1014.86 1015.48 1016.07 1016.62 1017.12 1017.60 1018.04 1018.45 1018.84 1019.19 1019.51 1019.78 1020.00 1020.15 1020.23
1010.80 1010.31 1009.77 1009.22 1008.66 1008.11 1007.61 1007.17 1006.82 1006.57 1006.43 1006.41 1006.49 1006.68 1006.95 1007.29 1007.67 1008.09 1008.52 1008.97 1009.42 1009.89 1010.37 1010.88 1011.41 1011.96 1012.54 1013.14 1013.74 1014.35 1014.94 1015.52 1016.08 1016.61 1017.12 1017.60 1018.04 1018.46 1018.83 1019.14 1019.40 1019.60 1019.72 1019.78
Thickness
5674 5665 5661 5668 5677 5682 5683 5683 5684 5694 5709 5709 5706 5709 5716 5725 5727 5727 5727 5729 5732 5735 5740 5742 5743 5743 5740 5737 5734 5731 5728 5725 5723 5719 5715 5712 5710 5709 5707 5706 5704 5702 5701 5699
5660 5658 5669 5676 5680 5682 5681 5679 5681 5692 5706 5706 5701 5704 5714 5721 5724 5727 5728 5729 5731 5734 5736 5739 5740 5740 5738 5735 5733 5730 5728 5725 5723 5720 5716 5713 5711 5708 5707 5705 5703 5702 5700 5698
5657 5665 5677 5677 5676 5676 5678 5677 5681 5686 5697 5700 5699 5697 5706 5717 5723 5727 5729 5731 5733 5734 5735 5736 5737 5737 5736 5734 5733 5731 5728 5725 5723 5720 5717 5713 5710 5708 5705 5704 5702 5701 5700 5698
5662 5672 5676 5674 5674 5677 5671 5686 5689 5689 5684 5679 5690 5677 5699 5708 5714 5720 5724 5727 5730 5734 5736 5735 5736 5735 5734 5734 5733 5731 5728 5725 5723 5720 5717 5713 5708 5705 5704 5702 5701 5701 5700 5698
5662 5671 5673 5672 5678 5681 5678 5688 5687 5685 5680 5677 5684 5678 5688 5706 5708 5715 5722 5726 5729 5732 5734 5735 5735 5735 5734 5734 5732 5730 5727 5724 5722 5720 5718 5714 5710 5707 5705 5703 5702 5701 5700 5699
5669 5679 5681 5681 5686 5688 5686 5683 5680 5675 5672 5665 5679 5678 5684 5698 5710 5718 5723 5725 5727 5729 5732 5733 5734 5734 5732 5731 5730 5728 5725 5722 5721 5719 5717 5714 5711 5708 5705 5703 5702 5701 5700 5699
5665 5673 5683 5688 5679 5681 5681 5668 5656 5654 5654 5660 5680 5681 5689 5714 5721 5724 5724 5724 5726 5728 5729 5729 5729 5729 5728 5728 5727 5725 5723 5720 5719 5718 5716 5714 5712 5709 5707 5705 5703 5701 5700 5699
5656 5660 5679 5687 5683 5677 5676 5673 5657 5651 5652 5662 5678 5679 5701 5721 5727 5728 5727 5726 5725 5725 5727 5728 5728 5727 5727 5726 5725 5724 5721 5719 5718 5716 5715 5713 5712 5709 5708 5706 5704 5702 5701 5700
5659 5664 5686 5692 5694 5688 5675 5672 5678 5666 5665 5663 5672 5687 5707 5719 5721 5722 5723 5722 5722 5724 5725 5726 5726 5725 5725 5724 5723 5723 5721 5718 5717 5715 5714 5712 5711 5709 5708 5707 5705 5704 5703 5702
5673 5668 5683 5691 5693 5690 5688 5681 5671 5665 5657 5658 5673 5683 5694 5710 5715 5719 5720 5720 5722 5723 5723 5723 5723 5723 5723 5723 5722 5720 5720 5718 5716 5714 5713 5711 5710 5709 5708 5707 5705 5704 5703 5702
5682 5673 5677 5686 5686 5683 5682 5679 5676 5669 5671 5662 5663 5684 5719 5723 5725 5724 5724 5724 5723 5722 5721 5721 5721 5721 5721 5720 5719 5718 5717 5715 5714 5712 5711 5710 5708 5708 5707 5705 5704 5703 5702 5701
5685 5675 5670 5683 5699 5703 5696 5689 5681 5673 5671 5671 5671 5691 5732 5732 5733 5731 5728 5725 5723 5722 5720 5719 5718 5717 5717 5717 5716 5715 5714 5713 5712 5711 5709 5708 5707 5706 5705 5703 5703 5702 5701 5700
5689 5678 5668 5674 5683 5694 5695 5694 5692 5685 5675 5668 5672 5698 5728 5730 5730 5731 5728 5724 5722 5719 5717 5716 5715 5714 5714 5714 5713 5713 5712 5711 5710 5709 5707 5706 5704 5703 5702 5701 5701 5700 5699 5698
5700 5683 5678 5674 5682 5692 5694 5696 5694 5688 5677 5674 5684 5704 5721 5725 5727 5727 5726 5724 5721 5718 5717 5714 5712 5712 5712 5712 5712 5711 5710 5709 5708 5707 5705 5703 5702 5701 5700 5699 5698 5697 5696 5695
5700 5687 5689 5693 5701 5701 5702 5702 5697 5695 5695 5690 5702 5707 5723 5730 5732 5731 5727 5723 5719 5717 5716 5715 5713 5711 5710 5709 5709 5708 5708 5707 5706 5704 5702 5700 5699 5698 5697 5696 5695 5694 5693 5691
5696 5690 5691 5695 5702 5700 5700 5705 5703 5703 5704 5704 5711 5716 5733 5734 5730 5727 5724 5723 5721 5720 5719 5716 5714 5712 5710 5709 5708 5707 5705 5704 5703 5701 5699 5697 5696 5695 5693 5692 5691 5689 5688 5686
5690 5688 5683 5681 5692 5697 5692 5708 5708 5709 5714 5714 5711 5726 5731 5728 5730 5732 5730 5728 5728 5725 5722 5719 5717 5715 5712 5710 5708 5706 5704 5702 5700 5698 5696 5694 5693 5691 5689 5689 5686 5684 5682 5681
5689 5684 5676 5676 5685 5677 5704 5724 5724 5720 5724 5726 5731 5735 5735 5739 5741 5740 5738 5735 5732 5729 5725 5722 5718 5715 5712 5709 5707 5705 5702 5699 5697 5695 5692 5691 5689 5687 5685 5683 5681 5679 5677 5675
5694 5684 5672 5668 5672 5682 5705 5722 5723 5718 5721 5733 5733 5736 5735 5734 5732 5732 5738 5738 5738 5734 5730 5726 5722 5717 5712 5708 5705 5702 5698 5695 5693 5691 5689 5687 5685 5683 5680 5678 5676 5673 5671 5669
5684 5683 5672 5665 5672 5674 5703 5728 5733 5726 5717 5739 5737 5735 5730 5729 5718 5731 5742 5740 5736 5732 5728 5724 5719 5714 5709 5706 5703 5699 5695 5692 5690 5689 5687 5684 5682 5679 5676 5673 5671 5668 5665 5663
5675 5671 5667 5663 5668 5681 5713 5725 5727 5705 5715 5741 5739 5737 5732 5733 5740 5746 5744 5740 5736 5731 5727 5722 5717 5713 5709 5704 5701 5696 5692 5690 5689 5687 5683 5680 5677 5674 5671 5668 5665 5662 5659 5656
5672 5665 5662 5659 5663 5680 5721 5719 5715 5722 5737 5740 5739 5738 5736 5738 5739 5740 5740 5737 5732 5727 5723 5719 5714 5710 5705 5702 5698 5694 5690 5689 5686 5682 5678 5675 5672 5670 5667 5662 5658 5655 5651 5647
5673 5679 5676 5680 5691 5710 5717 5720 5729 5731 5733 5736 5736 5737 5736 5733 5732 5733 5732 5730 5728 5724 5720 5716 5711 5705 5700 5697 5696 5691 5688 5684 5680 5676 5672 5669 5666 5662 5659 5655 5651 5647 5643 5639
5674 5679 5677 5679 5694 5706 5713 5719 5725 5729 5731 5735 5736 5736 5734 5730 5728 5726 5725 5723 5720 5718 5714 5710 5705 5700 5695 5692 5690 5688 5684 5679 5675 5670 5666 5662 5658 5654 5651 5647 5644 5639 5635 5631
5677 5673 5673 5679 5693 5702 5714 5717 5722 5726 5727 5730 5731 5731 5730 5727 5723 5721 5719 5717 5715 5712 5708 5705 5702 5697 5692 5687 5684 5681 5677 5673 5667 5663 5659 5654 5651 5647 5643 5639 5636 5633 5630 5627
5670 5672 5673 5680 5695 5696 5705 5715 5718 5719 5721 5723 5723 5722 5723 5723 5719 5716 5714 5712 5709 5705 5702 5698 5695 5691 5686 5682 5678 5674 5671 5667 5661 5655 5650 5646 5642 5638 5634 5631 5627 5626 5623 5621